Home   Weather   Nea Smyrni   Past weeks

Flag for Greece Past Weather in Nea Smyrni, Greece — Yesterday and Last 2 Weeks

64 °F

Partly sunny.

Feels Like: 64 °F
Forecast: 57 / 62 °F
Wind: 15 mph from Northeast

Location: Eleftherios Venizelos International Airport

Current Time: Oct 27, 2016 at 1:59:02 PM

Latest Report: Oct 27, 2016 at 12:50 PM

Visibility: N/A

Pressure: 30.12 "Hg

Humidity: 64%

Dew Point: 52 °F

Location of Nea SmyrniLocation

Past Weather in Nea Smyrni — Graph


Nea Smyrni Temperature Yesterday

Maximum temperature yesterday: 68 °F (at 12:50 PM)
Minimum temperature yesterday: 59 °F (at 3:20 AM)
Average temperature yesterday: 62 °F

High & Low Weather Summary for the Past Weeks

High82 °F (Oct 12, 3:20 PM)94% (Oct 14, 1:50 AM)30.30 "Hg (Oct 14, 1:50 AM)
Low48 °F (Oct 14, 5:50 AM)35% (Oct 13, 10:20 AM)29.77 "Hg (Oct 12, 3:50 PM)
Average64 °F65%30.13 "Hg
* Reported Oct 12 12:20 PM — Oct 27 12:20 PM, Nea Smyrni, Weather by CustomWeather, © 2016

Note: Actual official high and low records may vary slightly from our data, if they occured in-between our weather recording intervals... More about our weather records


Nea Smyrni Weather History for the Previous 24 Hours

Scroll right to see more
Time TempWeatherWind HumidityBarometerVisibility
12:20 PM
Thu, Oct 27
63 °FPartly sunny.14 mph73%30.12 "HgN/A
11:50 AM63 °FPartly sunny.15 mph68%30.12 "HgN/A
11:20 AM63 °FPartly sunny.12 mph73%30.15 "HgN/A
10:50 AM63 °FBroken clouds.14 mph73%30.12 "HgN/A
10:20 AM64 °FBroken clouds.13 mph64%30.12 "HgN/A
9:50 AM64 °FLight rain. Broken clouds.13 mph68%30.12 "HgN/A
9:20 AM64 °FBroken clouds.13 mph68%30.09 "HgN/A
8:50 AM64 °FBroken clouds.13 mph68%30.09 "HgN/A
8:20 AM63 °FScattered clouds.12 mph73%30.07 "HgN/A
7:50 AM63 °FScattered clouds.13 mph73%30.07 "HgN/A
7:20 AM63 °FPassing clouds.12 mph73%30.07 "HgN/A
6:50 AM63 °FPassing clouds.10 mph73%30.07 "HgN/A
6:20 AM63 °FPassing clouds.14 mph73%30.07 "HgN/A
5:50 AM63 °FPassing clouds.9 mph73%30.07 "HgN/A
5:20 AM63 °FPassing clouds.12 mph73%30.07 "HgN/A
4:50 AM63 °FPassing clouds.10 mph73%30.07 "HgN/A
4:20 AM63 °FPassing clouds.13 mph73%30.07 "HgN/A
3:50 AM63 °FPassing clouds.15 mph73%30.07 "HgN/A
3:20 AM61 °FPassing clouds.9 mph77%30.07 "HgN/A
2:50 AM61 °FPassing clouds.12 mph77%30.07 "HgN/A
1:20 AM61 °FClear.10 mph77%30.07 "Hg10 mi
12:50 AM61 °FClear.9 mph77%30.07 "Hg10 mi
12:20 AM61 °FClear.12 mph77%30.07 "Hg10 mi
11:50 PM
Wed, Oct 26
63 °FClear.12 mph73%30.07 "Hg10 mi
11:20 PM61 °FClear.12 mph77%30.07 "Hg10 mi
10:20 PM61 °FClear.3 mph77%30.07 "Hg10 mi
9:50 PM61 °FClear.3 mph77%30.07 "Hg10 mi
9:20 PM61 °FClear.1 mph77%30.04 "Hg10 mi
8:50 PM61 °FClear.No wind77%30.04 "Hg10 mi
8:20 PM61 °FClear.3 mph77%30.04 "Hg10 mi
7:50 PM63 °FClear.8 mph73%30.04 "Hg10 mi
7:20 PM63 °FClear.10 mph73%30.04 "Hg10 mi
6:50 PM63 °FPassing clouds.9 mph73%30.04 "HgN/A
6:20 PM64 °FPassing clouds.12 mph68%30.04 "HgN/A
5:50 PM64 °FPassing clouds.14 mph68%30.04 "HgN/A
5:20 PM64 °FPassing clouds.13 mph73%30.04 "HgN/A
4:50 PM66 °FPassing clouds.13 mph68%30.07 "HgN/A
4:20 PM66 °FPassing clouds.16 mph68%30.07 "HgN/A
3:50 PM66 °FPassing clouds.17 mph68%30.07 "HgN/A
3:20 PM68 °FPassing clouds.13 mph64%30.07 "HgN/A
2:50 PM68 °FPassing clouds.14 mph64%30.07 "HgN/A
2:20 PM68 °FPassing clouds.17 mph60%30.07 "HgN/A
1:50 PM68 °FScattered clouds.17 mph60%30.09 "HgN/A
1:20 PM68 °FPassing clouds.17 mph56%30.12 "HgN/A
Weather by CustomWeather, © 2016

See weather overviewHow to use our weather pages